Regional Weather Roundup
Issued by NWS

Home | Current Version | Previous Version | Graphics & Text | Print | Product List | Glossary On
Versions: 1 2 3 4 5 6 7 8 9 10 11 12 13 14 15 16 17 18 19 20 21 22 23 24 25 26 27 28 29 30 31 32 33 34 35 36 37 38 39 40 41 42 43 44 45 46 47 48 49 50
000
ASUS43 KFSD 040510
RWRSD

WEATHER ROUNDUP FOR SOUTH DAKOTA
NATIONAL WEATHER SERVICE SIOUX FALLS SD
1200 AM CDT WED MAY 04 2016

NOTE: "FAIR" INDICATES FEW OR NO CLOUDS BELOW 12,000 FEET WITH NO
SIGNIFICANT WEATHER AND/OR OBSTRUCTIONS TO VISIBILITY.


SDZ001>005-009-010-012>017-040600-
NORTHWEST AND NORTH CENTRAL SOUTH DAKOTA

CITY           SKY/WX    TMP DP  RH WIND       PRES   REMARKS
BUFFALO          N/A     58  37  45 E8        30.05R
FAITH            N/A     55  39  54 CALM      30.07S
MOBRIDGE       CLEAR     53  32  44 NE12      30.01R
$$

SDZ012>016-024>037-041>051-057-063-072>074-040600-
SOUTHWEST AND SOUTH CENTRAL SOUTH DAKOTA

CITY           SKY/WX    TMP DP  RH WIND       PRES   REMARKS
RAPID CTY ARPT CLEAR     52  39  61 NW12      30.11R
PIERRE         CLEAR     52  38  58 N9        30.00R
CUSTER         CLEAR     48  32  53 NW5       30.22R
ELLSWORTH AFB  CLEAR     53  39  60 NW10      30.10S
PHILIP         CLEAR     49  43  80 W6        30.06R
PINE RIDGE     CLEAR     42  37  82 CALM      30.11S
WINNER         FAIR      57  43  59 N5        30.02R
$$

SDZ004>011-016>023-039-040-040600-
NORTHEAST SOUTH DAKOTA

CITY           SKY/WX    TMP DP  RH WIND       PRES   REMARKS
ABERDEEN       CLEAR     48  31  51 N10       30.00R
WATERTOWN      CLEAR     46  31  55 N10       29.95R
BROOKINGS      CLEAR     48  32  53 N9        29.93R
SISSETON         N/A     49  31  49 N12       29.95R
$$

SDZ017-020-022-023-036>040-048>070-040600-
SOUTHEAST SOUTH DAKOTA

CITY           SKY/WX    TMP DP  RH WIND       PRES   REMARKS
SIOUX FALLS    CLEAR     51  33  50 N9        29.92R
HURON          CLEAR     50  32  50 N9        29.97R
CHAMBERLAIN    CLEAR     56  37  48 N5        30.00R
MITCHELL       CLEAR     53  37  54 N9        29.96R
YANKTON        CLEAR     52  37  58 NW10      29.93R
$$

ABBREVIATIONS USED IN REMARKS
   TC - TEMPERATURE IN CELSIUS
  WCI - WIND CHILL INDEX
   HX - HEAT INDEX
  VSB - VISIBILITY




USA.gov is the U.S. government's official web portal to all federal, state and local government web resources and services.